SCP
-0 -0 0 0 0 0 0 0 -0 0 0 -0 -0 -0 -0 0 -0 -0 -0 -0 -0 0 -0 -0 0 0 0 0 0 -0 0 0 0 0 0 -0 0 -0 0 0 -0 -0 0
0 0 0 0 -0 0 0 0 -0 0 0 -0 -0 -0 -0 -0 -0 -0 -0 -0 -0 -0 -0 -0 0 0 -0 -0 -0 -0 -0 0 0 -0 -0 0 0 0 0 0 0 0 0
0 0 0 0 -0 -0 0 0 -0 0 0 -0 -0 -0 -0 -0 -0 -0 -0 -0 0 -0 -0 -0 -0 -0 -0 -0 -0 -0 -0 -0 -0 0 -0 -0 -0 0 0 0 0 0 0
0 0 0 -0 0 -0 -0 0 0 0 0 0 -0 -0 -0 -0 -0 -0 -0 0 0 0 -0 0 0 -0 -0 -0 0 0 0 0 0 0 -0 0 -0 0 0 -0 0 0 0
0 0 0 -0 -0 -0 -0 -0 0 0 0 0 -0 0 0 -0 -0 0 0 0 0 0 0 0 0 0 -0 -0 -0 0 0 0 0 0 0 -0 0 0 -0 0 0 0 0
0 0 -0 -0 -0 -0 -0 -0 -0 0 0 0 0 0 0 0 0 0 0 0 0 0 0 0 -0 0 0 -0 -0 -0 0 0 0 0 0 0 0 0 -0 -0 0 0 0
0 0 -0 -0 -0 -0 -0 0 0 0 0 0 0 0 0 0 0 0 0 0 0 0 0 0 0 0 -0 0 0 0 0 -0 0 0 -0 0 -0 0 -0 0 0 0 0
-0 0 0 -0 -0 -0 -0 0 -0 0 0 0 0 0 0 0 0 0 0 0 0 -0 0 0 0 0 0 -0 -0 0 0 -0 0 0 -0 -0 0 0 -0 -0 0 -0 0
0 0 -0 -0 -0 -0 -0 -0 0 0 0 0 0 0 0 0 0 0 0 0 -0 0 -0 0 -0 0 0 -0 -0 0 -0 -0 0 0 0 -0 -0 -0 -0 -0 -0 -0 0
0 0 0 -0 -0 -0 -0 0 0 0 0 -0 -0 -0 0 0 0 0 0 0 -0 0 0 -0 0 0 -0 -0 -0 -0 -0 -0 -0 -0 -0 -0 -0 -0 -0 -0 -0 -0 -0
0 0 0 -0 -0 -0 -0 0 0 0 0 -0 -0 -0 0 -0 -0 0 0 -0 -0 -0 0 0 -0 -0 0 -0 -0 0 0 -0 0 0 0 -0 -0 -0 -0 -0 -0 -0 -0
0 -0 -0 -0 -0 -0 -0 -0 -0 -0 -0 -0 -0 -0 0 -0 -0 -0 -0 -0 -0 -0 -0 0 -0 -0 -0 0 0 0 -0 -0 -0 0 -0 -0 -0 -0 -0 -0 -0 -0 0
0 -0 -0 -0 -0 -0 -0 -0 -0 -0 -0 -0 0 0 0 0 -0 -0 -0 -0 0 -0 -0 -0 -0 -0 -0 0 -0 -0 0 -0 -0 -0 0 0 -0 -0 -0 -0 -0 0 0
0 -0 0 -0 -0 -0 -0 -0 -0 -0 -0 -0 0 0 0 0 0 -0 -0 0 -0 0 -0 -0 -0 -0 -0 -0 -0 -0 -0 -0 -0 -0 0 -0 -0 -0 -0 -0 -0 -0 -0
0 -0 -0 0 -0 0 -0 -0 0 -0 -0 -0 -0 0 0 0 0 0 -0 -0 -0 0 -0 -0 -0 0 -0 -0 -0 -0 -0 -0 -0 -0 -0 -0 -0 -0 -0 -0 -0 -0 -0
0 0 0 0 0 0 -0 -0 0 0 -0 -0 -0 -0 -0 0 0 0 0 -0 -0 -0 -0 0 0 0 0 -0 -0 -0 -0 -0 -0 -0 -0 0 -0 -0 0 -0 -0 -0 -0
0 0 0 0 0 0 0 0 -0 -0 0 0 -0 -0 -0 0 0 0 0 0 0 -0 -0 -0 0 0 0 -0 0 -0 -0 -0 -0 0 0 0 0 0 0 -0 -0 -0 -0
-0 -0 0 0 0 0 0 0 0 0 0 0 -0 -0 -0 0 -0 0 0 0 0 -0 -0 -0 0 0 -0 -0 -0 -0 -0 -0 -0 0 0 0 0 0 0 0 -0 -0 -0
0 -0 0 0 0 0 0 0 0 0 0 -0 0 -0 -0 0 -0 -0 -0 0 0 -0 -0 -0 -0 0 -0 -0 -0 -0 -0 0 -0 0 0 0 0 0 0 0 0 0 -0
0 0 0 0 0 0 0 0 0 0 -0 0 0 -0 -0 -0 -0 -0 -0 -0 -0 0 -0 0 -0 -0 -0 -0 0 0 0 0 0 0 0 -0 0 0 0 0 -0 0 -0
0 0 0 0 0 0 0 0 0 0 -0 -0 0 -0 -0 0 0 0 0 0 0 -0 -0 0 -0 0 0 0 0 -0 -0 0 0 0 0 0 -0 -0 -0 -0 0 0 0
-0 0 0 0 0 0 0 0 0 -0 -0 -0 0 0 0 0 0 0 0 -0 -0 0 -0 0 -0 0 0 0 0 0 -0 -0 -0 -0 0 -0 -0 -0 -0 -0 -0 -0 0
0 0 -0 0 -0 -0 -0 0 0 -0 -0 -0 -0 0 0 0 0 0 0 0 -0 -0 -0 -0 0 -0 0 0 -0 0 0 -0 -0 -0 0 0 -0 -0 -0 -0 -0 -0 -0
0 -0 -0 0 -0 -0 -0 0 0 0 -0 -0 -0 0 0 0 0 0 0 0 0 -0 -0 -0 0 0 -0 0 0 -0 0 0 0 -0 -0 -0 0 -0 -0 -0 -0 -0 -0
0 0 -0 -0 -0 -0 -0 0 0 0 -0 -0 -0 0 0 0 0 0 0 -0 0 0 -0 -0 -0 0 -0 0 -0 0 -0 0 0 -0 -0 -0 -0 -0 0 -0 -0 -0 -0
-0 -0 0 -0 -0 -0 -0 0 -0 -0 0 -0 -0 0 0 0 0 0 0 -0 0 -0 -0 -0 -0 -0 -0 -0 0 -0 -0 -0 -0 0 0 0 0 0 -0 -0 -0 -0 -0
Wind_Speed_500mb
47 47 43 41 40 36 33 32 30 32 32 31 30 30 30 31 29 31 33 35 36 34 37 40 38 39 41 44 44 46 45 46 48 50 48 48 48 47 52 50 50 50 51
55 47 42 38 37 34 29 28 27 27 28 27 24 25 28 28 28 29 31 35 37 38 39 43 45 46 47 48 47 45 43 44 44 45 42 43 42 44 47 49 48 49 49
55 46 41 35 34 32 28 26 25 26 27 24 21 22 25 27 27 28 31 33 36 37 39 43 45 46 46 46 46 45 43 40 38 36 39 41 38 38 43 46 49 48 48
51 44 40 36 34 30 26 26 24 22 24 25 23 21 26 25 25 29 36 35 35 38 39 42 43 45 46 47 48 51 47 40 35 31 36 33 33 34 38 42 45 48 48
49 45 42 38 33 28 26 24 24 22 22 25 24 23 25 25 26 29 39 38 36 37 39 42 41 45 52 49 46 43 38 38 30 25 26 30 32 34 37 37 40 43 44
52 48 42 37 33 29 24 24 25 22 20 21 26 26 27 28 27 32 40 37 35 34 36 42 44 45 44 41 38 34 36 33 26 25 25 30 32 35 32 34 37 38 40
53 46 42 36 32 29 25 27 28 25 22 23 34 32 33 32 30 37 39 34 32 34 33 38 40 42 39 37 34 30 29 28 23 21 23 27 30 31 30 31 33 34 36
49 47 44 37 33 30 28 30 32 31 34 42 41 36 35 33 32 33 32 31 31 31 31 35 35 39 37 32 31 28 29 26 18 17 21 23 27 27 26 30 33 34 33
45 47 44 40 34 31 30 32 34 36 39 41 39 36 36 32 29 28 26 27 29 27 29 34 38 39 37 30 27 28 27 23 13 13 19 22 25 25 25 28 32 33 33
52 43 43 41 37 35 35 34 35 36 38 39 36 33 32 30 27 24 23 23 25 23 26 31 34 37 35 32 25 23 28 24 16 13 17 21 25 26 24 25 29 30 32
52 49 41 43 42 37 37 37 38 36 33 30 32 31 31 28 24 21 22 23 21 21 22 31 32 32 35 34 34 28 21 20 21 16 18 20 22 24 24 23 28 30 31
53 49 44 45 44 39 36 36 37 41 34 25 23 19 27 27 25 18 20 19 21 19 18 23 26 26 27 30 33 27 27 20 16 13 17 20 22 23 24 23 27 28 28
54 51 44 46 46 38 33 29 30 31 25 24 19 6 16 22 24 20 16 22 22 20 16 17 21 27 26 30 30 29 33 23 20 10 20 22 22 24 24 24 23 26 25
55 45 41 42 36 32 24 21 19 21 18 19 17 15 16 22 27 21 20 20 21 18 14 14 21 21 29 25 30 28 21 24 16 16 20 23 22 22 23 23 23 23 26
55 53 39 32 34 32 25 18 20 21 13 12 11 6 8 14 16 12 21 24 18 15 21 23 25 12 34 31 42 33 27 26 17 17 18 20 20 23 22 21 23 24 24
52 52 44 36 36 30 28 21 17 12 13 9 8 6 6 6 11 6 24 25 23 20 15 13 16 8 14 40 36 36 30 26 18 16 21 21 19 20 21 22 22 23 22
55 50 46 40 36 36 27 25 19 19 13 16 13 11 10 4 6 9 21 20 22 18 13 19 17 6 20 39 22 25 37 26 18 18 23 22 22 22 18 20 23 24 25
45 47 38 41 39 36 29 29 22 20 10 10 11 8 10 11 7 7 18 21 18 21 20 18 20 18 23 22 24 31 29 30 24 19 27 25 23 23 22 32 25 23 25
46 41 44 38 32 29 27 32 32 25 13 10 13 15 13 9 10 7 9 11 23 29 27 23 21 20 25 21 25 24 23 20 25 22 19 21 22 20 17 32 29 26 27
55 46 49 40 36 26 18 28 28 30 22 15 9 13 12 14 6 8 10 17 20 30 34 39 29 27 24 23 21 25 24 16 18 25 25 20 21 19 20 23 27 32 35
56 46 53 58 48 40 30 25 23 33 20 18 15 10 10 10 5 4 10 17 26 19 32 41 38 34 31 33 23 25 24 26 19 21 21 27 25 25 24 23 22 24 34
63 53 60 59 50 36 34 22 19 26 25 20 16 14 16 14 13 10 9 11 15 18 24 24 37 32 30 41 30 25 21 25 29 26 26 31 30 25 24 21 18 25 29
67 70 65 61 43 35 31 22 26 22 28 23 18 19 18 17 13 12 11 14 14 16 18 18 23 33 29 30 33 23 17 18 26 33 37 33 32 31 28 26 22 26 27
63 59 74 69 50 45 40 33 33 31 26 22 22 15 19 18 20 20 19 19 19 17 19 18 22 29 36 39 36 41 26 9 15 16 40 40 37 37 36 37 29 29 28
63 66 67 80 73 62 51 35 37 35 28 24 25 26 18 21 22 26 26 28 22 24 24 25 25 22 30 39 42 37 41 34 28 28 30 39 46 43 40 38 40 39 36
62 63 60 74 68 66 60 47 40 42 34 29 24 27 23 20 18 18 33 23 26 25 25 28 26 25 25 29 42 46 46 42 43 32 32 30 36 39 39 40 44 48 42
Wind_Direction_500mb
154 143 139 134 127 121 113 108 111 114 120 124 123 117 111 109 115 112 115 108 103 105 106 107 113 114 115 118 115 118 122 123 119 113 112 107 106 106 105 108 112 114 117
148 145 141 135 129 124 116 108 108 111 114 119 126 120 116 110 114 121 120 116 109 108 108 108 112 114 116 118 119 122 126 124 115 113 114 109 109 109 110 109 112 115 115
152 150 146 140 132 127 119 111 109 110 110 116 123 125 120 112 115 122 128 124 117 113 115 117 117 117 118 119 121 122 118 113 112 114 116 121 113 116 117 115 114 115 115
155 152 147 144 137 130 123 115 112 110 114 116 123 129 126 119 120 125 134 128 124 118 121 121 126 126 127 128 127 124 119 115 111 117 122 120 118 125 121 119 117 114 115
153 148 145 143 139 132 122 116 113 112 116 124 124 131 129 123 122 125 137 134 130 124 122 122 124 126 126 125 121 116 114 109 107 115 130 126 127 128 124 122 122 120 122
147 145 143 143 139 129 122 116 110 109 111 131 136 133 129 126 120 130 136 136 133 126 124 128 131 133 130 125 125 124 121 128 127 114 128 129 129 123 123 126 123 127 128
146 145 143 142 135 127 120 115 108 101 89 131 139 134 129 124 119 127 132 135 134 131 127 130 133 138 132 127 120 124 136 134 123 119 136 134 130 129 132 134 133 130 132
150 147 143 140 133 123 115 111 110 101 96 114 127 127 129 124 122 128 133 132 129 128 129 130 136 142 132 126 125 133 138 137 127 128 139 148 141 141 140 139 139 139 137
153 150 145 136 129 121 111 111 111 106 105 115 121 125 127 125 125 129 135 136 134 131 130 134 139 150 150 144 137 143 142 145 152 144 154 153 148 145 142 143 144 142 143
153 152 143 132 124 119 112 112 112 110 113 115 119 121 125 125 130 135 140 141 144 141 131 136 142 156 161 156 150 143 151 158 160 156 161 155 151 148 146 149 148 148 146
157 150 144 129 118 116 112 111 110 111 115 122 128 133 133 131 133 132 143 144 143 135 128 141 149 161 168 165 153 158 157 142 142 156 163 159 154 152 148 150 156 154 153
160 152 146 132 120 114 116 116 108 111 110 117 120 129 131 134 139 140 148 146 146 140 133 144 157 154 173 181 163 166 151 157 166 150 168 164 160 157 152 150 156 156 160
163 151 149 137 127 110 118 119 115 119 108 110 123 114 150 146 151 159 164 152 164 160 155 146 161 168 179 196 179 164 166 162 169 198 173 168 164 165 163 160 153 160 160
157 156 148 150 142 131 124 124 130 125 112 115 113 128 162 183 163 163 170 163 174 179 169 162 167 176 198 189 203 193 192 185 174 180 188 179 171 167 169 163 161 163 168
157 151 152 150 141 143 148 132 118 131 125 123 139 110 171 195 175 195 177 169 175 199 204 219 203 238 211 238 199 205 182 167 156 180 194 190 183 174 173 173 170 172 174
164 163 160 166 160 164 162 157 142 153 152 177 189 229 307 230 243 261 192 177 184 210 195 203 201 237 197 180 198 200 202 180 175 186 198 204 190 176 176 180 186 178 179
162 168 177 175 176 181 180 172 159 173 184 225 234 244 262 298 261 221 190 196 206 209 227 178 176 138 187 177 163 189 184 195 176 193 204 209 210 198 191 198 192 188 184
167 170 181 188 187 190 196 198 183 188 183 173 225 267 264 264 258 220 198 198 217 219 192 176 174 159 156 178 177 189 196 206 201 200 206 210 218 222 225 200 195 196 198
190 191 193 193 194 204 217 208 209 205 192 216 254 277 275 326 323 199 191 207 219 216 212 209 193 177 173 180 189 189 191 216 212 213 209 219 216 217 219 205 216 213 208
191 196 195 211 209 210 202 207 198 203 202 215 239 271 309 329 316 270 198 201 206 215 212 214 206 197 195 187 214 206 216 215 231 223 219 214 207 206 216 216 221 223 217
194 208 213 209 203 209 199 183 202 192 202 211 222 256 285 314 30 267 232 219 220 208 216 217 215 218 206 194 202 202 209 226 243 216 229 228 221 208 208 213 219 217 211
199 198 194 206 214 203 199 213 216 208 203 187 226 254 274 284 309 313 304 256 253 189 183 223 226 220 215 203 198 205 212 222 226 225 232 237 230 224 223 219 214 209 211
210 207 205 210 207 212 211 219 213 207 204 217 230 239 254 261 303 315 304 280 258 218 229 235 215 214 223 207 214 200 194 216 231 227 229 230 234 232 229 227 222 219 211
210 213 216 217 224 233 227 232 231 229 214 213 212 254 244 254 274 283 305 295 270 252 236 230 225 225 226 222 216 214 207 202 206 230 230 232 230 232 231 232 228 228 220
220 220 219 226 235 234 225 237 235 235 228 230 239 245 247 235 253 258 262 255 260 274 263 244 232 244 231 225 227 229 230 230 249 252 259 231 225 229 236 240 241 235 237
228 226 226 227 232 229 229 234 239 232 222 217 225 246 239 248 343 268 250 251 261 252 247 249 248 239 227 225 228 232 236 244 247 261 237 232 242 240 239 243 242 246 243
Wind_Speed_850mb
47 47 43 41 40 36 33 32 30 32 32 31 30 30 30 31 29 31 33 35 36 34 37 40 38 39 41 44 44 46 45 46 48 50 48 48 48 47 52 50 50 50 51
55 47 42 38 37 34 29 28 27 27 28 27 24 25 28 28 28 29 31 35 37 38 39 43 45 46 47 48 47 45 43 44 44 45 42 43 42 44 47 49 48 49 49
55 46 41 35 34 32 28 26 25 26 27 24 21 22 25 27 27 28 31 33 36 37 39 43 45 46 46 46 46 45 43 40 38 36 39 41 38 38 43 46 49 48 48
51 44 40 36 34 30 26 26 24 22 24 25 23 21 26 25 25 29 36 35 35 38 39 42 43 45 46 47 48 51 47 40 35 31 36 33 33 34 38 42 45 48 48
49 45 42 38 33 28 26 24 24 22 22 25 24 23 25 25 26 29 39 38 36 37 39 42 41 45 52 49 46 43 38 38 30 25 26 30 32 34 37 37 40 43 44
52 48 42 37 33 29 24 24 25 22 20 21 26 26 27 28 27 32 40 37 35 34 36 42 44 45 44 41 38 34 36 33 26 25 25 30 32 35 32 34 37 38 40
53 46 42 36 32 29 25 27 28 25 22 23 34 32 33 32 30 37 39 34 32 34 33 38 40 42 39 37 34 30 29 28 23 21 23 27 30 31 30 31 33 34 36
49 47 44 37 33 30 28 30 32 31 34 42 41 36 35 33 32 33 32 31 31 31 31 35 35 39 37 32 31 28 29 26 18 17 21 23 27 27 26 30 33 34 33
45 47 44 40 34 31 30 32 34 36 39 41 39 36 36 32 29 28 26 27 29 27 29 34 38 39 37 30 27 28 27 23 13 13 19 22 25 25 25 28 32 33 33
52 43 43 41 37 35 35 34 35 36 38 39 36 33 32 30 27 24 23 23 25 23 26 31 34 37 35 32 25 23 28 24 16 13 17 21 25 26 24 25 29 30 32
52 49 41 43 42 37 37 37 38 36 33 30 32 31 31 28 24 21 22 23 21 21 22 31 32 32 35 34 34 28 21 20 21 16 18 20 22 24 24 23 28 30 31
53 49 44 45 44 39 36 36 37 41 34 25 23 19 27 27 25 18 20 19 21 19 18 23 26 26 27 30 33 27 27 20 16 13 17 20 22 23 24 23 27 28 28
54 51 44 46 46 38 33 29 30 31 25 24 19 6 16 22 24 20 16 22 22 20 16 17 21 27 26 30 30 29 33 23 20 10 20 22 22 24 24 24 23 26 25
55 45 41 42 36 32 24 21 19 21 18 19 17 15 16 22 27 21 20 20 21 18 14 14 21 21 29 25 30 28 21 24 16 16 20 23 22 22 23 23 23 23 26
55 53 39 32 34 32 25 18 20 21 13 12 11 6 8 14 16 12 21 24 18 15 21 23 25 12 34 31 42 33 27 26 17 17 18 20 20 23 22 21 23 24 24
52 52 44 36 36 30 28 21 17 12 13 9 8 6 6 6 11 6 24 25 23 20 15 13 16 8 14 40 36 36 30 26 18 16 21 21 19 20 21 22 22 23 22
55 50 46 40 36 36 27 25 19 19 13 16 13 11 10 4 6 9 21 20 22 18 13 19 17 6 20 39 22 25 37 26 18 18 23 22 22 22 18 20 23 24 25
45 47 38 41 39 36 29 29 22 20 10 10 11 8 10 11 7 7 18 21 18 21 20 18 20 18 23 22 24 31 29 30 24 19 27 25 23 23 22 32 25 23 25
46 41 44 38 32 29 27 32 32 25 13 10 13 15 13 9 10 7 9 11 23 29 27 23 21 20 25 21 25 24 23 20 25 22 19 21 22 20 17 32 29 26 27
55 46 49 40 36 26 18 28 28 30 22 15 9 13 12 14 6 8 10 17 20 30 34 39 29 27 24 23 21 25 24 16 18 25 25 20 21 19 20 23 27 32 35
56 46 53 58 48 40 30 25 23 33 20 18 15 10 10 10 5 4 10 17 26 19 32 41 38 34 31 33 23 25 24 26 19 21 21 27 25 25 24 23 22 24 34
63 53 60 59 50 36 34 22 19 26 25 20 16 14 16 14 13 10 9 11 15 18 24 24 37 32 30 41 30 25 21 25 29 26 26 31 30 25 24 21 18 25 29
67 70 65 61 43 35 31 22 26 22 28 23 18 19 18 17 13 12 11 14 14 16 18 18 23 33 29 30 33 23 17 18 26 33 37 33 32 31 28 26 22 26 27
63 59 74 69 50 45 40 33 33 31 26 22 22 15 19 18 20 20 19 19 19 17 19 18 22 29 36 39 36 41 26 9 15 16 40 40 37 37 36 37 29 29 28
63 66 67 80 73 62 51 35 37 35 28 24 25 26 18 21 22 26 26 28 22 24 24 25 25 22 30 39 42 37 41 34 28 28 30 39 46 43 40 38 40 39 36
62 63 60 74 68 66 60 47 40 42 34 29 24 27 23 20 18 18 33 23 26 25 25 28 26 25 25 29 42 46 46 42 43 32 32 30 36 39 39 40 44 48 42
Wind_Direction_850mb
154 143 139 134 127 121 113 108 111 114 120 124 123 117 111 109 115 112 115 108 103 105 106 107 113 114 115 118 115 118 122 123 119 113 112 107 106 106 105 108 112 114 117
148 145 141 135 129 124 116 108 108 111 114 119 126 120 116 110 114 121 120 116 109 108 108 108 112 114 116 118 119 122 126 124 115 113 114 109 109 109 110 109 112 115 115
152 150 146 140 132 127 119 111 109 110 110 116 123 125 120 112 115 122 128 124 117 113 115 117 117 117 118 119 121 122 118 113 112 114 116 121 113 116 117 115 114 115 115
155 152 147 144 137 130 123 115 112 110 114 116 123 129 126 119 120 125 134 128 124 118 121 121 126 126 127 128 127 124 119 115 111 117 122 120 118 125 121 119 117 114 115
153 148 145 143 139 132 122 116 113 112 116 124 124 131 129 123 122 125 137 134 130 124 122 122 124 126 126 125 121 116 114 109 107 115 130 126 127 128 124 122 122 120 122
147 145 143 143 139 129 122 116 110 109 111 131 136 133 129 126 120 130 136 136 133 126 124 128 131 133 130 125 125 124 121 128 127 114 128 129 129 123 123 126 123 127 128
146 145 143 142 135 127 120 115 108 101 89 131 139 134 129 124 119 127 132 135 134 131 127 130 133 138 132 127 120 124 136 134 123 119 136 134 130 129 132 134 133 130 132
150 147 143 140 133 123 115 111 110 101 96 114 127 127 129 124 122 128 133 132 129 128 129 130 136 142 132 126 125 133 138 137 127 128 139 148 141 141 140 139 139 139 137
153 150 145 136 129 121 111 111 111 106 105 115 121 125 127 125 125 129 135 136 134 131 130 134 139 150 150 144 137 143 142 145 152 144 154 153 148 145 142 143 144 142 143
153 152 143 132 124 119 112 112 112 110 113 115 119 121 125 125 130 135 140 141 144 141 131 136 142 156 161 156 150 143 151 158 160 156 161 155 151 148 146 149 148 148 146
157 150 144 129 118 116 112 111 110 111 115 122 128 133 133 131 133 132 143 144 143 135 128 141 149 161 168 165 153 158 157 142 142 156 163 159 154 152 148 150 156 154 153
160 152 146 132 120 114 116 116 108 111 110 117 120 129 131 134 139 140 148 146 146 140 133 144 157 154 173 181 163 166 151 157 166 150 168 164 160 157 152 150 156 156 160
163 151 149 137 127 110 118 119 115 119 108 110 123 114 150 146 151 159 164 152 164 160 155 146 161 168 179 196 179 164 166 162 169 198 173 168 164 165 163 160 153 160 160
157 156 148 150 142 131 124 124 130 125 112 115 113 128 162 183 163 163 170 163 174 179 169 162 167 176 198 189 203 193 192 185 174 180 188 179 171 167 169 163 161 163 168
157 151 152 150 141 143 148 132 118 131 125 123 139 110 171 195 175 195 177 169 175 199 204 219 203 238 211 238 199 205 182 167 156 180 194 190 183 174 173 173 170 172 174
164 163 160 166 160 164 162 157 142 153 152 177 189 229 307 230 243 261 192 177 184 210 195 203 201 237 197 180 198 200 202 180 175 186 198 204 190 176 176 180 186 178 179
162 168 177 175 176 181 180 172 159 173 184 225 234 244 262 298 261 221 190 196 206 209 227 178 176 138 187 177 163 189 184 195 176 193 204 209 210 198 191 198 192 188 184
167 170 181 188 187 190 196 198 183 188 183 173 225 267 264 264 258 220 198 198 217 219 192 176 174 159 156 178 177 189 196 206 201 200 206 210 218 222 225 200 195 196 198
190 191 193 193 194 204 217 208 209 205 192 216 254 277 275 326 323 199 191 207 219 216 212 209 193 177 173 180 189 189 191 216 212 213 209 219 216 217 219 205 216 213 208
191 196 195 211 209 210 202 207 198 203 202 215 239 271 309 329 316 270 198 201 206 215 212 214 206 197 195 187 214 206 216 215 231 223 219 214 207 206 216 216 221 223 217
194 208 213 209 203 209 199 183 202 192 202 211 222 256 285 314 30 267 232 219 220 208 216 217 215 218 206 194 202 202 209 226 243 216 229 228 221 208 208 213 219 217 211
199 198 194 206 214 203 199 213 216 208 203 187 226 254 274 284 309 313 304 256 253 189 183 223 226 220 215 203 198 205 212 222 226 225 232 237 230 224 223 219 214 209 211
210 207 205 210 207 212 211 219 213 207 204 217 230 239 254 261 303 315 304 280 258 218 229 235 215 214 223 207 214 200 194 216 231 227 229 230 234 232 229 227 222 219 211
210 213 216 217 224 233 227 232 231 229 214 213 212 254 244 254 274 283 305 295 270 252 236 230 225 225 226 222 216 214 207 202 206 230 230 232 230 232 231 232 228 228 220
220 220 219 226 235 234 225 237 235 235 228 230 239 245 247 235 253 258 262 255 260 274 263 244 232 244 231 225 227 229 230 230 249 252 259 231 225 229 236 240 241 235 237
228 226 226 227 232 229 229 234 239 232 222 217 225 246 239 248 343 268 250 251 261 252 247 249 248 239 227 225 228 232 236 244 247 261 237 232 242 240 239 243 242 246 243